Time,TemperatureF,DewpointF,PressureIn,WindDirection,WindDirectionDegrees,WindSpeedMPH,WindSpeedGustMPH,Humidity,HourlyPrecipIn,Conditions,Clouds,dailyrainin,SoftwareType,DateUTC
2013-10-09 00:09:00,67.3,65.8,29.99,NW,323,0.0,7.0,95,0.00,,,0.00,Weather View 32 v70,2013-10-09 04:09:00,
2013-10-09 00:19:00,67.2,65.7,29.99,West,262,0.0,7.0,95,0.00,,,0.00,Weather View 32 v70,2013-10-09 04:19:00,
2013-10-09 00:29:00,67.0,65.5,29.99,North,360,1.0,7.0,95,0.00,,,0.00,Weather View 32 v70,2013-10-09 04:29:00,
2013-10-09 00:39:00,67.0,65.5,29.99,North,360,1.0,7.0,95,0.00,,,0.00,Weather View 32 v70,2013-10-09 04:39:00,
2013-10-09 00:49:00,66.9,65.4,29.98,NE,55,1.0,7.0,95,0.00,,,0.00,Weather View 32 v70,2013-10-09 04:49:00,
2013-10-09 00:59:00,66.7,65.2,29.99,NNE,20,2.0,9.0,95,0.00,,,0.00,Weather View 32 v70,2013-10-09 04:59:00,
2013-10-09 01:09:00,66.6,65.1,29.98,NNE,24,0.0,9.0,95,0.00,,,0.00,Weather View 32 v70,2013-10-09 05:09:00,
2013-10-09 01:19:00,66.4,64.9,29.98,NNW,332,0.0,9.0,95,0.00,,,0.00,Weather View 32 v70,2013-10-09 05:19:00,
2013-10-09 01:29:00,66.3,64.8,29.98,NNW,339,0.0,9.0,95,0.00,,,0.00,Weather View 32 v70,2013-10-09 05:29:00,
2013-10-09 01:39:00,66.1,64.6,29.98,NNW,347,8.0,9.0,95,0.00,,,0.00,Weather View 32 v70,2013-10-09 05:39:00,
2013-10-09 01:49:00,66.3,64.8,29.99,SW,219,0.0,9.0,95,0.00,,,0.00,Weather View 32 v70,2013-10-09 05:49:00,
2013-10-09 01:59:00,65.9,64.4,29.99,NNE,13,0.0,8.0,95,0.00,,,0.00,Weather View 32 v70,2013-10-09 05:59:00,
2013-10-09 02:09:00,65.9,64.4,29.99,North,355,5.0,8.0,95,0.00,,,0.00,Weather View 32 v70,2013-10-09 06:09:00,
2013-10-09 02:19:00,65.7,64.2,29.99,WNW,298,0.0,8.0,95,0.00,,,0.00,Weather View 32 v70,2013-10-09 06:19:00,
2013-10-09 02:29:00,65.6,64.1,29.99,NW,318,0.0,8.0,95,0.00,,,0.00,Weather View 32 v70,2013-10-09 06:29:00,
2013-10-09 02:40:00,65.6,64.1,29.99,West,271,0.0,8.0,95,0.00,,,0.00,Weather View 32 v70,2013-10-09 06:40:00,
2013-10-09 02:49:00,65.6,64.4,29.98,West,279,1.0,7.0,96,0.00,,,0.00,Weather View 32 v70,2013-10-09 06:49:00,
2013-10-09 02:59:00,65.4,64.2,29.99,SSW,208,1.0,7.0,96,0.00,,,0.00,Weather View 32 v70,2013-10-09 06:59:00,
2013-10-09 03:09:00,65.4,64.2,29.99,WSW,247,3.0,7.0,96,0.00,,,0.00,Weather View 32 v70,2013-10-09 07:09:00,
2013-10-09 03:19:00,65.2,64.0,29.99,SSE,148,2.0,7.0,96,0.00,,,0.00,Weather View 32 v70,2013-10-09 07:19:00,
2013-10-09 03:29:00,65.0,63.8,29.99,NNE,14,0.0,6.0,96,0.00,,,0.00,Weather View 32 v70,2013-10-09 07:29:00,
2013-10-09 03:39:00,64.8,63.3,29.99,NNE,13,0.0,6.0,95,0.00,,,0.00,Weather View 32 v70,2013-10-09 07:39:00,
2013-10-09 03:40:00,64.8,63.3,29.99,NNE,13,0.0,6.0,95,0.00,,,0.00,Weather View 32 v70,2013-10-09 07:40:00,
2013-10-09 03:49:00,64.7,63.5,29.99,WNW,293,1.0,6.0,96,0.00,,,0.00,Weather View 32 v70,2013-10-09 07:49:00,
2013-10-09 03:59:00,64.5,63.0,29.99,North,355,0.0,6.0,95,0.00,,,0.00,Weather View 32 v70,2013-10-09 07:59:00,
2013-10-09 04:09:00,64.5,63.3,29.99,South,178,1.0,7.0,96,0.00,,,0.00,Weather View 32 v70,2013-10-09 08:09:00,
2013-10-09 04:19:00,64.3,63.1,29.99,WNW,298,4.0,7.0,96,0.00,,,0.00,Weather View 32 v70,2013-10-09 08:19:00,
2013-10-09 04:29:00,63.8,62.6,29.99,West,265,1.0,7.0,96,0.00,,,0.00,Weather View 32 v70,2013-10-09 08:29:00,
2013-10-09 04:39:00,63.7,62.5,29.99,NNW,341,0.0,7.0,96,0.00,,,0.00,Weather View 32 v70,2013-10-09 08:39:00,
2013-10-09 04:41:00,63.7,62.5,29.99,NNW,341,0.0,7.0,96,0.00,,,0.00,Weather View 32 v70,2013-10-09 08:41:00,
2013-10-09 04:49:00,63.5,62.3,29.99,NNE,28,1.0,9.0,96,0.00,,,0.00,Weather View 32 v70,2013-10-09 08:49:00,
2013-10-09 04:59:00,63.5,62.3,29.99,NNE,17,1.0,9.0,96,0.00,,,0.00,Weather View 32 v70,2013-10-09 08:59:00,
2013-10-09 05:09:00,63.3,62.1,29.99,WNW,297,1.0,9.0,96,0.00,,,0.00,Weather View 32 v70,2013-10-09 09:09:00,
2013-10-09 05:19:00,63.4,62.2,29.99,West,263,0.0,9.0,96,0.00,,,0.00,Weather View 32 v70,2013-10-09 09:19:00,
2013-10-09 05:29:00,63.3,62.1,30.00,WNW,282,4.0,10.0,96,0.00,,,0.00,Weather View 32 v70,2013-10-09 09:29:00,
2013-10-09 05:39:00,63.1,61.9,30.00,West,272,2.0,10.0,96,0.00,,,0.00,Weather View 32 v70,2013-10-09 09:39:00,
2013-10-09 05:41:00,63.1,61.9,30.00,West,272,2.0,10.0,96,0.00,,,0.00,Weather View 32 v70,2013-10-09 09:41:00,
2013-10-09 05:49:00,62.8,61.6,30.00,NNE,23,4.0,10.0,96,0.00,,,0.00,Weather View 32 v70,2013-10-09 09:49:00,
2013-10-09 05:59:00,62.7,61.2,30.00,NNE,18,3.0,10.0,95,0.00,,,0.00,Weather View 32 v70,2013-10-09 09:59:00,
2013-10-09 06:09:00,62.6,61.4,30.01,WNW,284,0.0,10.0,96,0.00,,,0.00,Weather View 32 v70,2013-10-09 10:09:00,
2013-10-09 06:19:00,62.6,61.4,30.01,NW,313,0.0,10.0,96,0.00,,,0.00,Weather View 32 v70,2013-10-09 10:19:00,
2013-10-09 06:29:00,62.5,61.3,30.02,WNW,290,2.0,10.0,96,0.00,,,0.00,Weather View 32 v70,2013-10-09 10:29:00,
2013-10-09 06:39:00,62.3,61.1,30.02,West,275,2.0,9.0,96,0.00,,,0.00,Weather View 32 v70,2013-10-09 10:39:00,
2013-10-09 06:42:00,62.3,61.1,30.02,West,275,2.0,9.0,96,0.00,,,0.00,Weather View 32 v70,2013-10-09 10:42:00,
2013-10-09 06:49:00,62.4,61.2,30.02,WNW,297,0.0,9.0,96,0.00,,,0.00,Weather View 32 v70,2013-10-09 10:49:00,
2013-10-09 06:59:00,62.5,61.3,30.02,North,9,2.0,9.0,96,0.00,,,0.00,Weather View 32 v70,2013-10-09 10:59:00,
2013-10-09 07:09:00,62.3,61.1,30.03,West,271,0.0,9.0,96,0.00,,,0.00,Weather View 32 v70,2013-10-09 11:09:00,
2013-10-09 07:19:00,62.4,61.2,30.03,NW,310,1.0,9.0,96,0.00,,,0.00,Weather View 32 v70,2013-10-09 11:19:00,
2013-10-09 07:29:00,62.2,60.7,30.03,NNE,25,0.0,7.0,95,0.00,,,0.00,Weather View 32 v70,2013-10-09 11:29:00,
2013-10-09 07:39:00,62.4,60.9,30.03,NNE,33,0.0,7.0,95,0.00,,,0.00,Weather View 32 v70,2013-10-09 11:39:00,
2013-10-09 07:43:00,62.4,60.9,30.03,NNE,33,0.0,7.0,95,0.00,,,0.00,Weather View 32 v70,2013-10-09 11:43:00,
2013-10-09 07:49:00,62.2,60.7,30.04,West,281,0.0,6.0,95,0.00,,,0.00,Weather View 32 v70,2013-10-09 11:49:00,
2013-10-09 07:59:00,62.2,60.7,30.04,West,259,0.0,6.0,95,0.00,,,0.00,Weather View 32 v70,2013-10-09 11:59:00,
2013-10-09 08:09:00,62.2,60.7,30.04,WNW,282,1.0,6.0,95,0.00,,,0.00,Weather View 32 v70,2013-10-09 12:09:00,
2013-10-09 08:19:00,62.4,60.9,30.04,WNW,289,0.0,6.0,95,0.00,,,0.00,Weather View 32 v70,2013-10-09 12:19:00,
2013-10-09 08:29:00,62.4,60.9,30.04,ENE,60,0.0,6.0,95,0.00,,,0.00,Weather View 32 v70,2013-10-09 12:29:00,
2013-10-09 08:39:00,62.3,60.8,30.04,West,267,2.0,9.0,95,0.00,,,0.00,Weather View 32 v70,2013-10-09 12:39:00,
2013-10-09 08:49:00,62.5,61.0,30.05,NNW,331,0.0,9.0,95,0.00,,,0.00,Weather View 32 v70,2013-10-09 12:49:00,
2013-10-09 08:59:00,62.5,61.0,30.05,NNW,338,0.0,9.0,95,0.00,,,0.00,Weather View 32 v70,2013-10-09 12:59:00,
2013-10-09 09:09:00,62.4,60.9,30.05,West,260,3.0,9.0,95,0.00,,,0.00,Weather View 32 v70,2013-10-09 13:09:00,
2013-10-09 09:19:00,62.5,60.7,30.05,WSW,258,1.0,9.0,94,0.00,,,0.00,Weather View 32 v70,2013-10-09 13:19:00,
2013-10-09 09:29:00,62.8,61.3,30.06,North,360,0.0,9.0,95,0.00,,,0.00,Weather View 32 v70,2013-10-09 13:29:00,
2013-10-09 09:39:00,62.8,61.0,30.06,West,277,3.0,8.0,94,0.00,,,0.00,Weather View 32 v70,2013-10-09 13:39:00,
2013-10-09 09:44:00,62.8,61.0,30.06,West,277,3.0,8.0,94,0.00,,,0.00,Weather View 32 v70,2013-10-09 13:44:00,
2013-10-09 09:49:00,63.1,61.3,30.06,WNW,288,0.0,8.0,94,0.00,,,0.00,Weather View 32 v70,2013-10-09 13:49:00,
2013-10-09 09:59:00,63.3,61.2,30.07,NNW,336,1.0,9.0,93,0.00,,,0.00,Weather View 32 v70,2013-10-09 13:59:00,
2013-10-09 10:09:00,63.4,61.3,30.07,West,261,0.0,9.0,93,0.00,,,0.00,Weather View 32 v70,2013-10-09 14:09:00,
2013-10-09 10:19:00,63.5,61.7,30.07,NE,49,4.0,9.0,94,0.00,,,0.00,Weather View 32 v70,2013-10-09 14:19:00,
2013-10-09 10:29:00,63.4,61.3,30.08,West,274,0.0,9.0,93,0.00,,,0.00,Weather View 32 v70,2013-10-09 14:29:00,
2013-10-09 10:39:00,63.5,61.7,30.08,WNW,301,4.0,9.0,94,0.00,,,0.00,Weather View 32 v70,2013-10-09 14:39:00,
2013-10-09 10:44:00,63.5,61.7,30.08,WNW,301,4.0,9.0,94,0.00,,,0.00,Weather View 32 v70,2013-10-09 14:44:00,
2013-10-09 10:49:00,63.5,61.7,30.08,NE,37,3.0,9.0,94,0.00,,,0.00,Weather View 32 v70,2013-10-09 14:49:00,
2013-10-09 10:59:00,63.6,61.8,30.08,WNW,288,0.0,8.0,94,0.00,,,0.00,Weather View 32 v70,2013-10-09 14:59:00,
2013-10-09 11:09:00,63.5,61.7,30.08,West,270,1.0,8.0,94,0.00,,,0.00,Weather View 32 v70,2013-10-09 15:09:00,
2013-10-09 11:19:00,63.5,62.0,30.08,NNE,23,1.0,8.0,95,0.00,,,0.00,Weather View 32 v70,2013-10-09 15:19:00,
2013-10-09 11:29:00,64.0,62.2,30.08,NNE,15,4.0,7.0,94,0.00,,,0.00,Weather View 32 v70,2013-10-09 15:29:00,
2013-10-09 11:39:00,64.0,62.2,30.08,West,271,1.0,7.0,94,0.00,,,0.00,Weather View 32 v70,2013-10-09 15:39:00,
2013-10-09 11:45:00,64.0,62.2,30.08,West,271,1.0,7.0,94,0.00,,,0.00,Weather View 32 v70,2013-10-09 15:45:00,
2013-10-09 11:49:00,64.3,62.5,30.08,West,265,4.0,7.0,94,0.00,,,0.00,Weather View 32 v70,2013-10-09 15:49:00,
2013-10-09 11:59:00,64.2,62.1,30.08,West,264,2.0,7.0,93,0.00,,,0.00,Weather View 32 v70,2013-10-09 15:59:00,
2013-10-09 12:09:00,64.9,62.8,30.08,ESE,114,0.0,7.0,93,0.00,,,0.00,Weather View 32 v70,2013-10-09 16:09:00,
2013-10-09 12:19:00,64.8,62.4,30.08,NNE,15,0.0,7.0,92,0.00,,,0.00,Weather View 32 v70,2013-10-09 16:19:00,
2013-10-09 12:29:00,64.7,62.6,30.08,North,11,3.0,10.0,93,0.00,,,0.00,Weather View 32 v70,2013-10-09 16:29:00,
2013-10-09 12:39:00,64.9,62.5,30.08,NW,319,0.0,10.0,92,0.00,,,0.00,Weather View 32 v70,2013-10-09 16:39:00,
2013-10-09 12:45:00,64.9,62.5,30.08,NW,319,0.0,10.0,92,0.00,,,0.00,Weather View 32 v70,2013-10-09 16:45:00,
2013-10-09 12:59:00,65.1,62.4,30.07,West,272,4.0,10.0,91,0.00,,,0.00,Weather View 32 v70,2013-10-09 16:59:00,
2013-10-09 13:09:00,65.1,62.4,30.07,NE,36,2.0,10.0,91,0.00,,,0.00,Weather View 32 v70,2013-10-09 17:09:00,
2013-10-09 13:19:00,65.8,63.4,30.07,North,5,1.0,10.0,92,0.00,,,0.00,Weather View 32 v70,2013-10-09 17:19:00,
2013-10-09 13:29:00,66.0,63.3,30.07,WSW,244,2.0,8.0,91,0.00,,,0.00,Weather View 32 v70,2013-10-09 17:29:00,
2013-10-09 13:39:00,65.8,62.8,30.06,WNW,283,1.0,8.0,90,0.00,,,0.00,Weather View 32 v70,2013-10-09 17:39:00,
2013-10-09 13:40:00,65.8,62.8,30.06,WNW,283,1.0,8.0,90,0.00,,,0.00,Weather View 32 v70,2013-10-09 17:40:00,
2013-10-09 13:47:00,65.8,62.8,30.06,WNW,283,1.0,8.0,90,0.00,,,0.00,Weather View 32 v70,2013-10-09 17:47:00,
2013-10-09 13:49:00,66.5,63.5,30.06,North,5,1.0,8.0,90,0.00,,,0.00,Weather View 32 v70,2013-10-09 17:49:00,
2013-10-09 13:59:00,67.0,63.6,30.06,NNE,12,7.0,9.0,89,0.00,,,0.00,Weather View 32 v70,2013-10-09 17:59:00,
2013-10-09 14:09:00,67.1,63.4,30.06,SSW,196,0.0,9.0,88,0.00,,,0.00,Weather View 32 v70,2013-10-09 18:09:00,
2013-10-09 14:19:00,67.9,64.2,30.05,NNE,19,2.0,9.0,88,0.00,,,0.00,Weather View 32 v70,2013-10-09 18:19:00,
2013-10-09 14:29:00,68.5,64.8,30.05,NNE,30,1.0,9.0,88,0.00,,,0.00,Weather View 32 v70,2013-10-09 18:29:00,
2013-10-09 14:39:00,69.2,64.8,30.04,WNW,296,1.0,9.0,86,0.00,,,0.00,Weather View 32 v70,2013-10-09 18:39:00,
2013-10-09 14:48:00,69.2,64.8,30.04,WNW,296,1.0,9.0,86,0.00,,,0.00,Weather View 32 v70,2013-10-09 18:48:00,
2013-10-09 14:49:00,69.3,64.6,30.04,North,355,4.0,9.0,85,0.00,,,0.00,Weather View 32 v70,2013-10-09 18:49:00,
2013-10-09 14:59:00,69.4,64.3,30.04,NNE,17,2.0,8.0,84,0.00,,,0.00,Weather View 32 v70,2013-10-09 18:59:00,
2013-10-09 15:09:00,69.6,64.2,30.04,NE,38,3.0,7.0,83,0.00,,,0.00,Weather View 32 v70,2013-10-09 19:09:00,
2013-10-09 15:19:00,69.5,64.8,30.04,North,9,9.0,9.0,85,0.00,,,0.00,Weather View 32 v70,2013-10-09 19:19:00,
2013-10-09 15:29:00,69.3,64.6,30.04,North,360,2.0,9.0,85,0.00,,,0.00,Weather View 32 v70,2013-10-09 19:29:00,
2013-10-09 15:39:00,69.6,65.2,30.04,North,5,5.0,9.0,86,0.00,,,0.00,Weather View 32 v70,2013-10-09 19:39:00,
2013-10-09 15:48:00,69.6,65.2,30.04,North,5,5.0,9.0,86,0.00,,,0.00,Weather View 32 v70,2013-10-09 19:48:00,
2013-10-09 15:49:00,69.2,64.5,30.04,NNE,16,2.0,9.0,85,0.00,,,0.00,Weather View 32 v70,2013-10-09 19:49:00,
2013-10-09 15:59:00,69.3,64.9,30.04,West,279,0.0,9.0,86,0.00,,,0.00,Weather View 32 v70,2013-10-09 19:59:00,
2013-10-09 16:09:00,69.4,65.0,30.04,NNE,30,3.0,9.0,86,0.00,,,0.00,Weather View 32 v70,2013-10-09 20:09:00,
2013-10-09 16:19:00,69.1,64.4,30.04,West,275,0.0,9.0,85,0.00,,,0.00,Weather View 32 v70,2013-10-09 20:19:00,
2013-10-09 16:29:00,68.8,64.4,30.04,NNW,336,0.0,8.0,86,0.00,,,0.00,Weather View 32 v70,2013-10-09 20:29:00,
2013-10-09 16:39:00,69.0,64.3,30.04,WSW,254,0.0,6.0,85,0.00,,,0.00,Weather View 32 v70,2013-10-09 20:39:00,
2013-10-09 16:49:00,69.0,64.3,30.04,WSW,254,0.0,6.0,85,0.00,,,0.00,Weather View 32 v70,2013-10-09 20:49:00,
2013-10-09 16:59:00,69.0,65.0,30.04,NW,305,0.0,5.0,87,0.00,,,0.00,Weather View 32 v70,2013-10-09 20:59:00,
2013-10-09 17:09:00,69.1,64.4,30.04,WSW,258,0.0,5.0,85,0.00,,,0.00,Weather View 32 v70,2013-10-09 21:09:00,
2013-10-09 17:19:00,69.2,64.8,30.04,WSW,254,0.0,5.0,86,0.00,,,0.00,Weather View 32 v70,2013-10-09 21:19:00,
2013-10-09 17:29:00,69.2,64.8,30.04,NW,315,0.0,5.0,86,0.00,,,0.00,Weather View 32 v70,2013-10-09 21:29:00,
2013-10-09 17:39:00,68.8,64.4,30.04,West,271,0.0,5.0,86,0.00,,,0.00,Weather View 32 v70,2013-10-09 21:39:00,
2013-10-09 17:49:00,68.8,64.4,30.04,West,259,0.0,4.0,86,0.00,,,0.00,Weather View 32 v70,2013-10-09 21:49:00,
2013-10-09 17:59:00,68.5,64.5,30.04,West,272,0.0,4.0,87,0.00,,,0.00,Weather View 32 v70,2013-10-09 21:59:00,
2013-10-09 18:09:00,68.5,64.5,30.04,NW,306,0.0,4.0,87,0.00,,,0.00,Weather View 32 v70,2013-10-09 22:09:00,
2013-10-09 18:19:00,68.3,64.6,30.03,WNW,303,0.0,4.0,88,0.00,,,0.00,Weather View 32 v70,2013-10-09 22:19:00,
2013-10-09 18:29:00,68.2,64.8,30.03,WNW,297,0.0,4.0,89,0.00,,,0.00,Weather View 32 v70,2013-10-09 22:29:00,
2013-10-09 18:39:00,67.9,64.5,30.04,WNW,297,0.0,4.0,89,0.00,,,0.00,Weather View 32 v70,2013-10-09 22:39:00,
2013-10-09 18:50:00,67.5,64.5,30.04,WNW,297,0.0,4.0,90,0.00,,,0.00,Weather View 32 v70,2013-10-09 22:50:00,
2013-10-09 18:59:00,66.8,64.1,30.04,WNW,297,0.0,2.0,91,0.00,,,0.00,Weather View 32 v70,2013-10-09 22:59:00,
2013-10-09 19:09:00,66.3,63.6,30.03,WNW,297,0.0,2.0,91,0.00,,,0.00,Weather View 32 v70,2013-10-09 23:09:00,
2013-10-09 19:19:00,65.8,63.4,30.04,WNW,298,0.0,2.0,92,0.00,,,0.00,Weather View 32 v70,2013-10-09 23:19:00,
2013-10-09 19:29:00,65.3,63.2,30.04,WNW,298,0.0,1.0,93,0.00,,,0.00,Weather View 32 v70,2013-10-09 23:29:00,
2013-10-09 19:39:00,64.8,62.7,30.04,WNW,298,0.0,0.0,93,0.00,,,0.00,Weather View 32 v70,2013-10-09 23:39:00,
2013-10-09 19:49:00,64.4,62.6,30.03,WNW,297,0.0,0.0,94,0.00,,,0.00,Weather View 32 v70,2013-10-09 23:49:00,
2013-10-09 19:50:00,64.4,62.6,30.03,WNW,297,0.0,0.0,94,0.00,,,0.00,Weather View 32 v70,2013-10-09 23:50:00,
2013-10-09 20:00:00,64.0,62.2,30.03,WNW,297,0.0,0.0,94,0.00,,,0.00,Weather View 32 v70,2013-10-10 00:00:00,
2013-10-09 20:10:00,63.7,61.9,30.03,WNW,298,0.0,0.0,94,0.00,,,0.00,Weather View 32 v70,2013-10-10 00:10:00,
2013-10-09 20:19:00,63.4,61.9,30.03,WNW,297,0.0,0.0,95,0.00,,,0.00,Weather View 32 v70,2013-10-10 00:19:00,
2013-10-09 20:29:00,63.1,61.6,30.03,WNW,298,0.0,0.0,95,0.00,,,0.00,Weather View 32 v70,2013-10-10 00:29:00,
2013-10-09 20:39:00,62.9,61.4,30.03,WNW,298,0.0,0.0,95,0.00,,,0.00,Weather View 32 v70,2013-10-10 00:39:00,
2013-10-09 20:49:00,62.4,60.9,30.04,WNW,297,0.0,0.0,95,0.00,,,0.00,Weather View 32 v70,2013-10-10 00:49:00,
2013-10-09 20:51:00,62.4,60.9,30.04,WNW,297,0.0,0.0,95,0.00,,,0.00,Weather View 32 v70,2013-10-10 00:51:00,
2013-10-09 20:59:00,62.3,60.8,30.04,WNW,297,0.0,0.0,95,0.00,,,0.00,Weather View 32 v70,2013-10-10 00:59:00,
2013-10-09 21:09:00,62.5,61.0,30.04,WNW,297,0.0,0.0,95,0.00,,,0.00,Weather View 32 v70,2013-10-10 01:09:00,
2013-10-09 21:19:00,62.4,60.9,30.05,WNW,298,0.0,0.0,95,0.00,,,0.00,Weather View 32 v70,2013-10-10 01:19:00,
2013-10-09 21:29:00,62.2,60.7,30.05,WNW,297,0.0,0.0,95,0.00,,,0.00,Weather View 32 v70,2013-10-10 01:29:00,
2013-10-09 21:39:00,61.9,60.4,30.05,WNW,297,0.0,0.0,95,0.00,,,0.00,Weather View 32 v70,2013-10-10 01:39:00,
2013-10-09 21:49:00,61.7,60.2,30.05,WNW,298,0.0,0.0,95,0.00,,,0.00,Weather View 32 v70,2013-10-10 01:49:00,
2013-10-09 21:52:00,61.7,60.2,30.05,WNW,298,0.0,0.0,95,0.00,,,0.00,Weather View 32 v70,2013-10-10 01:52:00,
2013-10-09 21:59:00,61.6,60.1,30.05,WNW,297,0.0,0.0,95,0.00,,,0.00,Weather View 32 v70,2013-10-10 01:59:00,
2013-10-09 22:09:00,61.4,60.0,30.06,WNW,297,0.0,0.0,95,0.00,,,0.00,Weather View 32 v70,2013-10-10 02:09:00,
2013-10-09 22:19:00,61.6,60.4,30.06,WNW,297,0.0,0.0,96,0.00,,,0.00,Weather View 32 v70,2013-10-10 02:19:00,
2013-10-09 22:29:00,61.6,60.4,30.06,WNW,298,0.0,0.0,96,0.00,,,0.00,Weather View 32 v70,2013-10-10 02:29:00,
2013-10-09 22:39:00,61.3,59.9,30.07,WNW,297,0.0,0.0,95,0.00,,,0.00,Weather View 32 v70,2013-10-10 02:39:00,
2013-10-09 22:49:00,61.4,60.2,30.07,WNW,298,0.0,0.0,96,0.00,,,0.00,Weather View 32 v70,2013-10-10 02:49:00,
2013-10-09 22:52:00,61.4,60.2,30.07,WNW,298,0.0,0.0,96,0.00,,,0.00,Weather View 32 v70,2013-10-10 02:52:00,
2013-10-09 22:59:00,61.8,60.6,30.07,WNW,297,0.0,0.0,96,0.00,,,0.00,Weather View 32 v70,2013-10-10 02:59:00,
2013-10-09 23:09:00,62.1,60.9,30.07,WNW,298,0.0,0.0,96,0.00,,,0.00,Weather View 32 v70,2013-10-10 03:09:00,
2013-10-09 23:19:00,62.9,61.7,30.07,WNW,298,0.0,0.0,96,0.00,,,0.00,Weather View 32 v70,2013-10-10 03:19:00,
2013-10-09 23:29:00,63.6,62.4,30.06,WNW,297,0.0,0.0,96,0.00,,,0.00,Weather View 32 v70,2013-10-10 03:29:00,
2013-10-09 23:39:00,63.3,61.8,30.07,WNW,298,0.0,0.0,95,0.00,,,0.00,Weather View 32 v70,2013-10-10 03:39:00,
2013-10-09 23:49:00,63.5,62.0,30.06,WNW,297,0.0,1.0,95,0.00,,,0.00,Weather View 32 v70,2013-10-10 03:49:00,
2013-10-09 23:53:00,63.5,62.0,30.06,WNW,297,0.0,1.0,95,0.00,,,0.00,Weather View 32 v70,2013-10-10 03:53:00,
2013-10-09 23:59:00,64.0,62.5,30.06,WNW,298,0.0,1.0,95,0.00,,,0.00,Weather View 32 v70,2013-10-10 03:59:00,